This demonstration page uses our WeatherBlox Daily Observations layout. Learn more.

Left ArrowRight Arrow

39.51506, -84.39828

Hourly Observations for March 9, 2018

Temp ( °F °C ) Dew Point ( °F °C ) Humidity (%) Winds ( mph kmh ) Pressure ( in mb ) Visibility ( mi km ) Precip ( " mm )
12:15 am 00:15 Cloudy with Light Snow 29 -1.9 20 -6.9 69 69 W 7 11 30.09 1019 10 16.0934 N/A
12:35 am 00:35 Cloudy with Light Snow 28 -2.1 20 -6.6 72 72 W 10 17 30.09 1019 10 16.0934 N/A
12:55 am 00:55 Cloudy with Light Snow 28 -2.2 20 -6.5 73 73 W 8 13 30.06 1018 10 16.0934 N/A
1:15 am 01:15 Cloudy 28 -2.2 20 -6.6 72 72 W 8 13 30.06 1018 10 16.0934 N/A
1:35 am 01:35 Cloudy 28 -2.4 20 -6.5 74 74 W 5 7 30.06 1018 10 16.0934 N/A
1:55 am 01:55 Cloudy 27 -2.7 20 -6.6 75 75 WSW 6 9 30.06 1018 10 16.0934 N/A
2:15 am 02:15 Cloudy 26 -3.1 20 -6.5 78 78 WSW 6 9 30.06 1018 10 16.0934 N/A
2:35 am 02:35 Partly Cloudy 26 -3.4 20 -6.8 78 78 WSW 7 11 30.06 1018 10 16.0934 N/A
2:55 am 02:55 Partly Cloudy 25 -3.9 19 -7.3 78 78 WSW 5 7 30.06 1018 10 16.0934 N/A
3:15 am 03:15 Clear 24 -4.4 18 -7.6 79 79 WSW 6 9 30.06 1018 10 16.0934 N/A
3:35 am 03:35 Clear 24 -4.5 19 -7.4 80 80 W 3 6 30.06 1018 10 16.0934 N/A
3:55 am 03:55 Mostly Cloudy 25 -3.9 21 -6.3 84 84 W 3 6 30.06 1018 10 16.0934 N/A
4:15 am 04:15 Cloudy 25 -3.7 20 -6.4 82 82 W 3 6 30.06 1018 10 16.0934 N/A
4:35 am 04:35 Mostly Cloudy 26 -3.5 21 -6.3 81 81 N N/A 30.06 1018 10 16.0934 N/A
4:55 am 04:55 Clear 26 -3.5 20 -6.4 81 81 W 3 6 30.06 1018 10 16.0934 N/A
5:15 am 05:15 Clear 24 -4.5 19 -7.5 80 80 W 6 9 30.09 1019 10 16.0934 N/A
5:35 am 05:35 Clear 24 -4.3 17 -8.1 75 75 W 6 9 30.09 1019 10 16.0934 N/A
5:55 am 05:55 Clear 24 -4.3 17 -8.3 74 74 WSW 5 7 30.09 1019 10 16.0934 N/A
6:15 am 06:15 Clear 23 -5.1 19 -7.4 84 84 WSW 5 7 30.09 1019 10 16.0934 N/A
6:35 am 06:35 Clear 23 -5 19 -7.4 83 83 WSW 3 6 30.09 1019 10 16.0934 N/A
6:55 am 06:55 Partly Cloudy 24 -4.6 18 -7.7 79 79 WSW 3 6 30.09 1019 10 16.0934 N/A
7:15 am 07:15 Sunny 23 -4.8 18 -7.9 79 79 WSW 3 6 30.09 1019 10 16.0934 N/A
7:35 am 07:35 Sunny 24 -4.3 19 -7.4 79 79 WSW 3 6 30.09 1019 10 16.0934 N/A
7:55 am 07:55 Sunny 26 -3.2 20 -6.4 79 79 WSW 6 9 30.09 1019 10 16.0934 N/A
8:15 am 08:15 Sunny 27 -2.6 20 -6.4 75 75 WSW 7 11 30.09 1019 10 16.0934 N/A
8:35 am 08:35 Mostly Cloudy 29 -1.8 20 -6.5 71 71 WSW 8 13 30.09 1019 10 16.0934 N/A
8:55 am 08:55 Mostly Cloudy 30 -1.1 20 -6.5 67 67 WSW 8 13 30.09 1019 10 16.0934 N/A
9:15 am 09:15 Cloudy 31 -0.8 20 -6.9 64 64 W 13 20 30.09 1019 10 16.0934 N/A
9:35 am 09:35 Partly Cloudy 32 -0.2 19 -7.1 60 60 W 7 11 30.09 1019 10 16.0934 N/A
9:55 am 09:55 Partly Cloudy 33 0.4 19 -7.2 57 57 W 12 19 30.09 1019 10 16.0934 N/A
10:15 am 10:15 Mostly Cloudy 33 0.3 19 -7.4 57 57 W 10 17 30.09 1019 10 16.0934 N/A
10:35 am 10:35 Mostly Cloudy 34 1.1 18 -7.9 51 51 W 12 19 30.09 1019 10 16.0934 N/A
10:55 am 10:55 Cloudy 35 1.5 19 -7.5 52 52 W 13 20 30.09 1019 10 16.0934 N/A
11:15 am 11:15 Cloudy 36 2.1 19 -7.4 50 50 WSW 9 15 30.09 1019 10 16.0934 N/A
11:35 am 11:35 Mostly Cloudy 35 1.5 18 -7.7 51 51 W 10 17 30.06 1018 10 16.0934 N/A
11:55 am 11:55 Mostly Cloudy 36 2.4 18 -7.9 47 47 W 15 24 30.06 1018 10 16.0934 N/A
12:15 pm 12:15 Mostly Cloudy 36 2 17 -8.2 47 47 WSW 16 26 30.06 1018 10 16.0934 N/A
12:35 pm 12:35 Mostly Cloudy 37 2.5 17 -8.2 46 46 W 13 20 30.06 1018 10 16.0934 N/A
12:55 pm 12:55 Mostly Cloudy 37 3 18 -7.8 45 45 W 9 15 30.06 1018 10 16.0934 N/A
1:15 pm 13:15 Mostly Cloudy 38 3.3 17 -8.1 43 43 W 16 26 30.06 1018 10 16.0934 N/A
1:35 pm 13:35 Mostly Cloudy 39 4.1 19 -7.5 43 43 W 14 22 30 1016 10 16.0934 N/A
1:55 pm 13:55 Mostly Cloudy 39 4.1 18 -7.9 42 42 WNW 10 17 30 1016 10 16.0934 N/A
2:15 pm 14:15 Partly Cloudy 40 4.3 18 -7.7 42 42 WNW 12 19 30 1016 10 16.0934 N/A
2:35 pm 14:35 Mostly Cloudy 42 5.6 19 -7.5 39 39 WSW 16 26 30 1016 10 16.0934 N/A
2:55 pm 14:55 Partly Cloudy 40 4.7 19 -7.4 42 42 WNW 8 13 30 1016 10 16.0934 N/A
3:15 pm 15:15 Partly Cloudy 39 4.1 18 -7.7 42 42 NW 10 17 30 1016 10 16.0934 N/A
3:35 pm 15:35 Partly Cloudy 42 5.4 19 -7.4 40 40 W 10 17 30 1016 10 16.0934 N/A
3:55 pm 15:55 Sunny 41 4.8 18 -8 39 39 WNW 12 19 30 1016 10 16.0934 N/A
4:15 pm 16:15 Sunny 41 5 19 -7.4 41 41 W 9 15 30 1016 10 16.0934 N/A
4:35 pm 16:35 Sunny 42 5.4 18 -7.8 38 38 W 12 19 30 1016 10 16.0934 N/A
4:55 pm 16:55 Sunny 41 5.1 18 -7.8 39 39 WNW 10 17 30 1016 10 16.0934 N/A
5:15 pm 17:15 Sunny 40 4.3 19 -7.4 43 43 W 6 9 30 1016 10 16.0934 N/A
5:35 pm 17:35 Sunny 40 4.2 19 -7.4 43 43 WNW 7 11 30 1016 10 16.0934 N/A
5:55 pm 17:55 Sunny 39 4.1 20 -6.7 46 46 NW 6 9 30 1016 10 16.0934 N/A
6:15 pm 18:15 Sunny 38 3.6 19 -7.1 46 46 WNW 6 9 30 1016 10 16.0934 N/A
6:35 pm 18:35 Sunny 37 2.9 19 -7 49 49 NNW 3 6 30.03 1017 10 16.0934 N/A
6:55 pm 18:55 Clear 37 2.9 19 -7.2 48 48 NNW 3 6 30.03 1017 10 16.0934 N/A
7:15 pm 19:15 Clear 37 2.5 20 -6.9 50 50 N 3 6 30.03 1017 10 16.0934 N/A
7:35 pm 19:35 Clear 35 1.9 21 -6.3 55 55 N 3 6 30.03 1017 10 16.0934 N/A
7:55 pm 19:55 Clear 32 undefined 22 -5.7 66 66 N N/A 30.03 1017 10 16.0934 N/A
8:15 pm 20:15 Clear 33 0.5 22 -5.7 64 64 N N/A 30.03 1017 10 16.0934 N/A
8:35 pm 20:35 Clear 31 -0.4 21 -6 66 66 NNE 3 6 30.03 1017 10 16.0934 N/A
8:55 pm 20:55 Clear 30 -1.3 22 -5.4 74 74 N N/A 30.06 1018 10 16.0934 N/A
9:15 pm 21:15 Clear 29 -1.6 22 -5.8 73 73 N N/A 30.06 1018 10 16.0934 N/A
9:35 pm 21:35 Clear 28 -2.4 22 -5.6 79 79 N N/A 30.06 1018 10 16.0934 N/A
9:55 pm 21:55 Clear 28 -2.1 22 -5.5 78 78 N N/A 30.06 1018 10 16.0934 N/A
10:15 pm 22:15 Clear 28 -2.4 22 -5.3 81 81 N 5 7 30.06 1018 10 16.0934 N/A
10:35 pm 22:35 Partly Cloudy 29 -1.5 23 -5.2 76 76 N 5 7 30.06 1018 10 16.0934 N/A
10:55 pm 22:55 Partly Cloudy 30 -1.3 22 -5.3 75 75 N N/A 30.06 1018 10 16.0934 N/A
11:15 pm 23:15 Mostly Cloudy 30 -1.1 24 -4.7 77 77 N N/A 30.06 1018 10 16.0934 N/A
11:35 pm 23:35 Partly Cloudy 31 -0.5 23 -5 72 72 NE 3 6 30.06 1018 10 16.0934 N/A
11:55 pm 23:55 Partly Cloudy 31 -0.7 23 -5.2 72 72 ENE 6 9 30.06 1018 10 16.0934 N/A

Powered by AerisWeather